COSMOS 2251 DEB, 34909

Orbit data source: Space-Track

COSMOS 2251 DEB, 34909 is space debris in LEO originally from a launch on Wed, 16 Jun 1993 UTC launched from the Plesetsk Missile And Space Complex (PKMTR). The debris from Iridium 33, an American commercial communications satellite, has been tracked extensively since its accidental collision with the defunct Russian satellite Cosmos 2251 in 2009. This event, occurring at high speed in low Earth orbit (LEO), generated thousands of pieces of space debris, significantly increasing the risk of further collisions. The Iridium 33 debris cloud has impacted space traffic management and orbital debris mitigation strategies, making it a subject of ongoing study in space situational awareness.

Loading next visibility...
Identifier
34909, 1993-036ADE
Orbit
LEO
Country
Flag of CISCIS
Related business
Manufacturer
Unknown
Mission
Spacecraft
Bus & Motor
Unknown
Mass
Unknown
Launch date (UTC)
1993-06-16 (32 years ago)
Launch vehicle
Unknown
Launch site
Plesetsk Missile And Space Complex (PKMTR)
Object type
Payload
Rocket body
Debris
Shape & HBR
Unknown shape, 0.1 m
Radar Cross Section
Small (<0.1 m²)

Expand to show TLE details & history
Last TLE update: 2 days ago

TLE from 2 days ago
0 COSMOS 2251 DEB
1 34909U 93036ADE 25302.89335032  .00004079  00000-0  54523-3 0  9993
2 34909  74.0134 162.7347 0085755 307.8759  51.4680 14.77307419662040
Epoch: 2025-10-29T21:26Z
TLE epoch observation values (Epoch: 2025-10-29T21:26:25.467Z)
Latitude
-0°
Longitude
162.66863°
Altitude
603.328 km
Speed
7.578 km/s
True Right ascension
10h 50m 56s
True Declination
0° 00' 00"
Sunlit
Object was in daylight at epoch
Visualization orbit readout
Latitude
Unknown
Longitude
Unknown
Altitude
Unknown
Speed
Unknown
Apparent Right ascension
Unknown
Apparent Declination
Unknown
Sunlit
N/A
Visualization observer readout
Local Sidereal Time
14:13:42
Azimuth
Unknown
Elevation
Unknown
Doppler factor
Unknown
Orbital elements
Apogee altitude
695.561 km
Perigee altitude
575.272 km
Semi-major axis
7,013.553 km
Eccentricity
0.00858
Inclination
74.0134°
RAAN
162.7347°
Arg. of periapsis
307.8759°
True anomaly
52.24185°
Mean anomaly
51.468°
Eccentric anomaly
51.85441°
Mean motion
3.69518 °/min
Orbital period
97.42 mins
BSTAR
0.00054523

Documentation

Showing up to 5 results
|